Regional Weather Roundup
Issued by NWS

Home | Current Version | Previous Version | Text Only | Print | Product List | Glossary On
Versions: 1 2 3 4 5 6 7 8 9 10 11 12 13 14 15 16 17 18 19 20 21 22 23 24 25 26 27 28 29 30 31 32 33 34 35 36 37 38 39 40 41 42 43 44 45 46 47 48 49 50
303
ASUS45 KABQ 252010
RWRNM
NEW MEXICO REGIONAL WEATHER ROUNDUP
NATIONAL WEATHER SERVICE ALBUQUERQUE NM
200 PM MDT WED MAY 25 2016

NOTE: "FAIR" MEANS FEW OR NO CLOUDS BELOW 12,000 FEET AGL WITH NO
       SIGNIFICANT WEATHER OR OBSTRUCTIONS TO VISION.

      THIS PRODUCT IS RELEASED AS TWO VERSIONS.  ONE VERSION NEAR
      THE TOP OF THE HOUR CONTAINING PRELIMINARY DATA FROM ALBUQUERQUE
      AND OTHER STATIONS.  A FINAL VERSION WITH ADDITIONAL DATA IS
      ISSUED ABOUT 10 MINUTES AFTER THE HOUR.

NMZ501-503-504-510>518-252100-
NORTHWEST PLATEAU/NORTHCENTRAL MOUNTAINS

CITY           SKY/WX    TMP DP  RH WIND       PRES   REMARKS
FARMINGTON     FAIR      70   4   7 S5        30.06F
LOS ALAMOS     FAIR      68   7   9 W6G16     30.15F
SANTA FE       FAIR      74   3   6 W16G25    30.11F
TAOS           FAIR      70  12  11 W14       30.14F
ANGEL FIRE     FAIR      61  15  16 W17G23    30.20S

$$
NMZ402-403-502-505>509-252100-
WESTCENTRAL MOUNTAINS/SOUTHWEST MOUNTAINS

CITY           SKY/WX    TMP DP  RH WIND       PRES   REMARKS
GALLUP         FAIR      71  16  12 S20G29    30.11F
GRANTS         FAIR      72  15  11 SW9G18    30.12F
SILVER CITY      N/A     79  19  11 SW17G32   30.13F

$$
NMZ407-409-411-412-252100-
SOUTHERN DESERTS

CITY           SKY/WX    TMP DP  RH WIND       PRES   REMARKS
LORDSBURG      FAIR      82  21  10 S13G21    30.04F
DEMING         FAIR      86  21   9 SW21G28   30.05F
LAS CRUCES     FAIR      84  26  11 S15G29    30.07F
HOLLOMAN AFB   FAIR      86  18   8 SW21      30.03F
ALAMOGORDO     FAIR      84  21  10 S12G23    30.06F
T OR C         FAIR      84  17   8 SW21G33   30.02F

$$
NMZ519>523-252100-
CENTRAL VALLEYS/CENTRAL HIGHLANDS

CITY           SKY/WX    TMP DP  RH WIND       PRES   REMARKS
ALBUQUERQUE    FAIR      75  16  10 VRB3      30.08F
DOUBLE EAGLE   MOSUNNY   73  21  14 W6G16     30.11F
MORIARTY ARPT  FAIR      74  13   9 W7        30.13F
CLINES CORNERS FAIR      71  12  10 SW21G35   30.14F
BELEN          FAIR      77  17  10 S13       30.06F
SOCORRO        FAIR      81  19  10 S16G29    30.03F

$$
NMZ524>526-539-540-252100-
SOUTHCENTRAL MOUNTAINS

CITY           SKY/WX    TMP DP  RH WIND       PRES   REMARKS
RUIDOSO          N/A     72  12  10 W21G35    30.19S

$$
NMZ527>531-252100-
NORTHEAST HIGHLANDS/NORTHEAST PLAINS

CITY           SKY/WX    TMP DP  RH WIND       PRES   REMARKS
LAS VEGAS      FAIR      73   5   7 SW23G29   30.11S
RATON          FAIR      76  11   8 S17G28    30.03F
CLAYTON        FAIR      82  18   9 SW12G21   29.99F

$$
NMZ532>537-252100-
EASTCENTRAL PLAINS

CITY           SKY/WX    TMP DP  RH WIND       PRES   REMARKS
TUCUMCARI      FAIR      89  14   6 SW25G33   29.96F
CANNON AFB     FAIR      85  18   8 SW14G21   30.01F
CLOVIS AIRPORT FAIR      84  28  13 SW12G24   30.01F

$$
NMZ028-029-538-252100-
SOUTHEAST PLAINS

CITY           SKY/WX    TMP DP  RH WIND       PRES   REMARKS
ROSWELL        FAIR      92  13   5 VRB7      29.96F
ARTESIA        FAIR      91  25   9 SW23G33   29.98S
CARLSBAD       FAIR      95  20   6 SW24G33   29.96F
HOBBS          SUNNY     90  19   7 SW15G30   30.01F


$$




USA.gov is the U.S. government's official web portal to all federal, state and local government web resources and services.